• In Hungary
  • List of Countries
  • For 7 days
  • Water Temperature
  • Satellite Maps
  • Weather Map
  • News
  • Weather Widgets
  • user-avatar
    Login

    Hourly Weather Krupka

    Today, 21 October, Saturday

    Time Temperature Precipitation Wind Pressure Humidity
    00:00 +10°C° 0 mm 2 mps 731 mmHg 87%
    01:00 +10°C° 0 mm 1 mps 731 mmHg 92%
    02:00 +10°C° 0 mm 1 mps 731 mmHg 92%
    03:00 +9°C° 0 mm 2 mps 731 mmHg 92%
    04:00 +8°C° 0 mm 2 mps 731 mmHg 92%
    05:00 +8°C° 0 mm 2 mps 731 mmHg 91%
    06:00 +9°C° 0 mm 2 mps 731 mmHg 90%
    07:00 +9°C° 0 mm 2 mps 731 mmHg 89%
    08:00 +10°C° 0 mm 2 mps 731 mmHg 83%
    09:00 +12°C° 0 mm 2 mps 732 mmHg 77%
    10:00 +14°C° 0 mm 2 mps 732 mmHg 71%
    11:00 +15°C° 0 mm 2 mps 731 mmHg 67%
    12:00 +16°C° 0 mm 3 mps 731 mmHg 63%
    13:00 +17°C° 0 mm 3 mps 731 mmHg 59%
    14:00 +17°C° 0 mm 2 mps 731 mmHg 62%
    15:00 +16°C° 0 mm 2 mps 730 mmHg 65%
    16:00 +16°C° 0 mm 1 mps 730 mmHg 68%
    17:00 +15°C° 0 mm 1 mps 730 mmHg 72%
    18:00 +14°C° 0 mm 1 mps 730 mmHg 76%
    19:00 +13°C° 0 mm 2 mps 730 mmHg 81%
    20:00 +13°C° 0.2 mm 2 mps 730 mmHg 82%
    21:00 +13°C° 0.2 mm 2 mps 730 mmHg 83%
    22:00 +13°C° 0.2 mm 2 mps 730 mmHg 85%
    23:00 +13°C° 0.5 mm 2 mps 730 mmHg 87%

    Tomorrow, 22 October, Sunday

    Time Temperature Precipitation Wind Pressure Humidity
    00:00 +13°C° 0.5 mm 2 mps 730 mmHg 89%
    01:00 +13°C° 0.5 mm 2 mps 730 mmHg 91%
    02:00 +11°C° 2.1 mm 3 mps 730 mmHg 91%
    03:00 +11°C° 2.1 mm 3 mps 730 mmHg 91%
    04:00 +11°C° 2.1 mm 3 mps 730 mmHg 91%
    05:00 +11°C° 0.7 mm 3 mps 730 mmHg 90%
    06:00 +10°C° 0.7 mm 3 mps 730 mmHg 89%
    07:00 +10°C° 0.7 mm 3 mps 730 mmHg 88%
    08:00 +10°C° 0.1 mm 4 mps 730 mmHg 84%
    09:00 +11°C° 0.1 mm 4 mps 731 mmHg 79%
    10:00 +10°C° 0.1 mm 5 mps 731 mmHg 75%
    11:00 +12°C° 0 mm 5 mps 731 mmHg 72%
    12:00 +12°C° 0 mm 5 mps 731 mmHg 69%
    13:00 +12°C° 0 mm 5 mps 730 mmHg 66%
    14:00 +11°C° 0 mm 4 mps 730 mmHg 67%
    15:00 +11°C° 0 mm 3 mps 730 mmHg 68%
    16:00 +11°C° 0 mm 3 mps 730 mmHg 70%
    17:00 +10°C° 0 mm 2 mps 730 mmHg 72%
    18:00 +9°C° 0 mm 2 mps 730 mmHg 73%
    19:00 +8°C° 0 mm 2 mps 731 mmHg 75%
    20:00 +8°C° 0 mm 2 mps 731 mmHg 77%
    21:00 +7°C° 0 mm 2 mps 731 mmHg 79%
    22:00 +7°C° 0 mm 2 mps 731 mmHg 81%
    23:00 +7°C° 0 mm 2 mps 731 mmHg 82%

    Day after tomorrow, 23 October, Monday

    Time Temperature Precipitation Wind Pressure Humidity
    00:00 +7°C° 0 mm 2 mps 731 mmHg 83%
    01:00 +7°C° 0 mm 2 mps 731 mmHg 84%
    02:00 +7°C° 0 mm 2 mps 731 mmHg 85%
    03:00 +7°C° 0 mm 2 mps 731 mmHg 86%
    04:00 +7°C° 0 mm 2 mps 731 mmHg 86%
    05:00 +7°C° 0 mm 3 mps 731 mmHg 86%
    06:00 +7°C° 0 mm 3 mps 731 mmHg 86%
    07:00 +7°C° 0 mm 3 mps 731 mmHg 86%
    08:00 +6°C° 0 mm 4 mps 731 mmHg 82%
    09:00 +7°C° 0 mm 4 mps 732 mmHg 78%
    10:00 +8°C° 0 mm 4 mps 732 mmHg 73%
    11:00 +8°C° 0 mm 4 mps 732 mmHg 72%
    12:00 +10°C° 0 mm 4 mps 732 mmHg 72%
    13:00 +10°C° 0 mm 4 mps 732 mmHg 71%
    14:00 +10°C° 0.2 mm 3 mps 732 mmHg 74%
    15:00 +9°C° 0.2 mm 3 mps 732 mmHg 77%
    16:00 +9°C° 0.2 mm 2 mps 732 mmHg 80%
    17:00 +9°C° 0.3 mm 2 mps 733 mmHg 83%
    18:00 +8°C° 0.3 mm 2 mps 733 mmHg 86%
    19:00 +8°C° 0.3 mm 2 mps 733 mmHg 89%
    20:00 +8°C° 0.1 mm 2 mps 733 mmHg 90%
    21:00 +9°C° 0.1 mm 1 mps 734 mmHg 91%
    22:00 +9°C° 0.1 mm 1 mps 734 mmHg 92%
    23:00 +9°C° 0.1 mm 1 mps 734 mmHg 92%

    24 October, Tuesday

    Time Temperature Precipitation Wind Pressure Humidity
    00:00 +8°C° 0.1 mm 1 mps 734 mmHg 93%
    01:00 +8°C° 0.1 mm 1 mps 735 mmHg 93%
    02:00 +8°C° 0 mm 1 mps 735 mmHg 94%
    03:00 +8°C° 0 mm 1 mps 735 mmHg 94%
    04:00 +7°C° 0 mm 1 mps 735 mmHg 94%
    05:00 +7°C° 0 mm 1 mps 736 mmHg 94%
    06:00 +7°C° 0 mm 1 mps 736 mmHg 94%
    07:00 +6°C° 0 mm 1 mps 737 mmHg 95%
    08:00 +8°C° 0 mm 1 mps 737 mmHg 89%
    09:00 +9°C° 0 mm 1 mps 738 mmHg 84%
    10:00 +9°C° 0 mm 2 mps 738 mmHg 78%
    11:00 +10°C° 0 mm 2 mps 738 mmHg 74%
    12:00 +12°C° 0 mm 2 mps 739 mmHg 71%
    13:00 +12°C° 0 mm 2 mps 739 mmHg 67%
    14:00 +12°C° 0 mm 2 mps 739 mmHg 69%
    15:00 +10°C° 0 mm 2 mps 739 mmHg 72%
    16:00 +10°C° 0 mm 2 mps 739 mmHg 74%
    17:00 +10°C° 0 mm 1 mps 740 mmHg 79%
    18:00 +9°C° 0 mm 1 mps 740 mmHg 84%
    19:00 +8°C° 0 mm 1 mps 740 mmHg 89%
    20:00 +7°C° 0 mm 1 mps 740 mmHg 90%
    21:00 +7°C° 0 mm 1 mps 740 mmHg 91%
    22:00 +6°C° 0 mm 1 mps 740 mmHg 92%
    23:00 +5°C° 0 mm 0 mps 740 mmHg 92%

    25 October, Wednesday

    Time Temperature Precipitation Wind Pressure Humidity
    00:00 +5°C° 0 mm 0 mps 740 mmHg 92%
    01:00 +5°C° 0 mm 0 mps 741 mmHg 92%
    02:00 +5°C° 0 mm 0 mps 741 mmHg 92%
    03:00 +5°C° 0 mm 0 mps 741 mmHg 92%
    04:00 +4°C° 0 mm 0 mps 741 mmHg 92%
    05:00 +4°C° 0 mm 0 mps 741 mmHg 92%
    06:00 +4°C° 0 mm 0 mps 741 mmHg 92%
    07:00 +4°C° 0 mm 0 mps 741 mmHg 92%
    08:00 +7°C° 0 mm 1 mps 741 mmHg 86%
    09:00 +8°C° 0 mm 1 mps 742 mmHg 80%
    10:00 +10°C° 0 mm 1 mps 742 mmHg 74%
    11:00 +11°C° 0 mm 1 mps 742 mmHg 70%
    12:00 +12°C° 0 mm 1 mps 742 mmHg 66%
    13:00 +12°C° 0 mm 1 mps 742 mmHg 62%
    14:00 +12°C° 0 mm 1 mps 741 mmHg 65%
    15:00 +12°C° 0 mm 1 mps 741 mmHg 68%
    16:00 +11°C° 0 mm 1 mps 741 mmHg 70%
    17:00 +10°C° 0 mm 1 mps 741 mmHg 74%
    18:00 +9°C° 0 mm 1 mps 742 mmHg 79%
    19:00 +8°C° 0 mm 1 mps 742 mmHg 83%
    20:00 +7°C° 0 mm 1 mps 742 mmHg 83%
    21:00 +6°C° 0 mm 2 mps 742 mmHg 82%
    22:00 +5°C° 0 mm 2 mps 743 mmHg 82%
    23:00 +5°C° 0 mm 2 mps 743 mmHg 80%

    26 October, Thursday

    Time Temperature Precipitation Wind Pressure Humidity
    00:00 +5°C° 0 mm 2 mps 743 mmHg 78%
    01:00 +5°C° 0 mm 1 mps 743 mmHg 76%
    02:00 +5°C° 0 mm 1 mps 743 mmHg 76%
    03:00 +5°C° 0 mm 1 mps 743 mmHg 75%
    04:00 +5°C° 0 mm 1 mps 742 mmHg 75%
    05:00 +4°C° 0 mm 1 mps 743 mmHg 75%
    06:00 +4°C° 0 mm 1 mps 743 mmHg 76%
    07:00 +4°C° 0 mm 1 mps 743 mmHg 76%
    08:00 +6°C° 0 mm 1 mps 743 mmHg 70%
    09:00 +8°C° 0 mm 1 mps 743 mmHg 65%
    10:00 +8°C° 0 mm 2 mps 743 mmHg 59%
    11:00 +11°C° 0 mm 1 mps 743 mmHg 55%
    12:00 +12°C° 0 mm 1 mps 743 mmHg 51%
    13:00 +13°C° 0 mm 1 mps 743 mmHg 47%
    14:00 +12°C° 0 mm 1 mps 743 mmHg 50%
    15:00 +12°C° 0 mm 1 mps 742 mmHg 53%
    16:00 +11°C° 0 mm 1 mps 742 mmHg 55%
    17:00 +10°C° 0 mm 1 mps 742 mmHg 57%
    18:00 +9°C° 0 mm 1 mps 742 mmHg 58%
    19:00 +8°C° 0 mm 1 mps 742 mmHg 60%
    20:00 +8°C° 0 mm 1 mps 743 mmHg 59%
    21:00 +8°C° 0 mm 1 mps 743 mmHg 58%
    22:00 +7°C° 0 mm 1 mps 743 mmHg 57%
    23:00 +7°C° 0 mm 1 mps 743 mmHg 57%
    Show more